Regional Weather Roundup
Issued by NWS Newport/Morehead, NC

Current Version | Previous Version | Graphics & Text | Print | Product List | Glossary On
Versions: 1 2 3 4 5 6 7 8 9 10 11 12 13 14 15 16 17 18 19 20 21 22 23 24 25 26 27 28 29 30 31 32 33 34 35 36 37 38 39 40 41 42 43 44 45 46 47 48 49 50
000 ASUS42 KMHX 260022 RWRMHX WEATHER ROUNDUP FOR EASTERN NORTH CAROLINA NATIONAL WEATHER SERVICE NEWPORT/MOREHEAD CITY NC 700 PM EST THU DEC 25 2014 NOTE: "FAIR" INDICATES FEW OR NO CLOUDS BELOW 12,000 FEET WITH NO SIGNIFICANT WEATHER AND/OR OBSTRUCTIONS TO VISIBILITY NCZ015>017-031-032-045>047-102-103-260100- NORTH COAST CITY SKY/WX TMP DP RH WIND PRES REMARKS EDENTON N/A 48 38 68 NW3 30.18R ELIZABETH CITY CLEAR 51 36 56 W5 30.16R KITTY HAWK CLEAR 50 41 70 CALM 30.15S MANTEO CLEAR 48 43 81 CALM 30.17R $$ NCZ045>047-081-094-103-104-260100- CENTRAL COAST CITY SKY/WX TMP DP RH WIND PRES REMARKS FRISCO CLEAR 42 41 96 CALM 30.17R SWANQUARTER N/A 48 N/A N/A N1 30.12S $$ NCZ095-097-098-100-101-260100- SOUTHERN COAST CITY SKY/WX TMP DP RH WIND PRES REMARKS BEAUFORT CLEAR 46 43 89 CALM 30.17R CEDAR ISLAND N/A 52 N/A N/A NW5 30.21R JACKSONVILLE CLEAR 47 44 90 CALM 30.17R PINEY ISLAND CLEAR 53 42 66 NW6 30.17R WILMINGTON CLEAR 47 44 90 CALM 30.18R $$ NCZ011>013-027>030-043-044-078>080-089-090>093-098-260100- COASTAL PLAIN CITY SKY/WX TMP DP RH WIND PRES REMARKS AHOSKIE CLEAR 41 37 84 CALM 30.17S CLINTON CLEAR 45 43 92 CALM 30.20R ELIZABETHTOWN CLEAR 49 42 75 NW3 30.20R GOLDSBORO CLEAR 47 43 84 SW3 30.17R GREENVILLE CLEAR 45 41 87 CALM 30.21R HAVELOCK CLEAR 46 42 86 CALM 30.18R KENANSVILLE CLEAR 43 39 86 CALM 30.20R KINSTON CLEAR 43 39 87 CALM 30.19R NEW BERN CLEAR 45 39 79 CALM 30.18R RICHLANDS CLEAR 43 39 87 CALM 30.19R ROCKY MOUNT CLEAR 43 37 79 CALM 30.18R WASHINGTON CLEAR 46 39 79 CALM 30.19R WHITEVILLE CLEAR 47 44 87 CALM 30.20R $$ AMZ130-135-150-152-154-156-158-170-250-252-270-ANZ085-086-088-633-658-670-260100- MARINE OBSERVATIONS STATION/POSITION TIME TEMP WIND PRES WAVE SWELL AIR SEA DIR/SP/G HT/PER HT/PER (UTC) (F) (DEG/KT/KT) (MB) (FT/S) (FT/S) CHESAPEAKE LIGHT 0000 52 10/ 5/ 5 1021.6 64 E VA BEACH 0000 52 53 350/ 2/ 2 1020.9 5/ 8 5/ 8 DUCK 0000 53 50 290/ 5/ 5 1020.2 2 E DUCK 0000 50 N/A 2/11 10 NE DUCK 0000 50 N/A 2/ 9 OREGON INLET 0000 50 55 290/ 4/ 5 1021.6 13E OREGON INLT 0000 51 N/A 3/ 7 HATTERAS CG 0000 53 58 50/ 2/ 2 1021.9 DIAMOND BUOY 0000 56 1021.5 5/ 9 17 S OCRACOKE NOT AVBL CAPE LOOKOUT 0000 56 320/ 2/ 2 1021.6 BEAUFORT LAB 0000 52 56 290/ 1/ 1 1020.6 30 SE NEW RIVER 0000 58 60 270/ 8/ 10 1022.2 4/ 8 5/ 8 5 SE WRIGHTSVLE NOT AVBL 225 S CAPE HAT NOT AVBL 41 SE CHARLESTON 0000 58 71 310/ 6/ 10 1022.4 3/ 5 3/ 5 $$

USA.gov is the U.S. government's official web portal to all federal, state and local government web resources and services.